Location: Ch�risy
(50.2331°N, 2.9131°E)
Time: 23:50:45
(UTC+00:00)

Cosmos 1300 - Pass Details

Date: 17 January 2021
Orbit: 511 x 513 km, 82.5° (Epoch: 01 March)

Event Time Altitude Azimuth Distance (km) Brightness Sun altitude
Rises 18:11:43 0° 344° (NNW) 2,643 6.4 -17.7°
Reaches altitude 10° 18:13:55 10° 337° (NNW) 1,750 5.5 -18.1°
Maximum altitude 18:17:33 42° 267° (W) 751 4.0 -18.6°
Drops below altitude 10° 18:21:09 10° 196° (SSW) 1,735 5.7 -19.2°
Sets 18:23:20 0° 189° (S) 2,616 6.5 -19.6°
